AO-07 1 07530U 74089B 23124.54841819 -.00000048 00000-0 -11358-4 0 9991 2 07530 101.9458 110.9342 0012420 145.4997 331.0748 12.53663865217701 UO-11 1 14781U 84021B 23124.52441249 .00001857 00000-0 22503-3 0 9995 2 14781 97.6550 103.1585 0008003 357.8163 2.3016 14.84755720 87664 AO-16 1 20439U 90005D 23124.54495667 .00000231 00000-0 10122-3 0 9995 2 20439 98.8822 113.6610 0010290 337.4218 135.9415 14.33086665738654 LO-19 1 20442U 90005G 23124.53902771 .00000228 00000-0 99577-4 0 9995 2 20442 98.8412 100.1300 0010850 310.8097 49.2144 14.33240904739095 HUBBLE 1 20580U 90037B 23124.52340742 .00004518 00000-0 23943-3 0 9995 2 20580 28.4687 198.4653 0002105 261.3159 120.1108 15.12937337614840 MET-2/21 1 22782U 93055A 23124.53136403 .00000060 00000-0 40721-4 0 9994 2 22782 82.5455 119.4189 0022648 163.0640 313.1236 13.83884445498410 AO-27 1 22825U 93061C 23124.83593247 .00000153 00000-0 76794-4 0 9997 2 22825 98.8452 167.0187 0008296 186.9956 173.1111 14.30292228544366 IO-26 1 22826U 93061D 23124.85027206 .00000179 00000-0 86250-4 0 9993 2 22826 98.8398 166.8976 0009118 173.5527 186.5774 14.30651370544617 FO-29 1 24278U 96046B 23124.56481056 -.00000028 00000-0 65642-5 0 9994 2 24278 98.5265 109.0727 0350404 169.8911 190.9520 13.53143014319281 NOAA-15 1 25338U 98030A 23124.87411992 .00000295 00000-0 14097-3 0 9994 2 25338 98.6096 154.6643 0011563 82.1938 278.0555 14.26305987299082 GO-32 1 25397U 98043D 23124.44182716 .00000107 00000-0 66575-4 0 9996 2 25397 98.8655 81.5297 0000194 225.2447 134.8715 14.23864803289109 ISS 1 25544U 98067A 23124.69711053 .00057654 00000-0 10123-2 0 9990 2 25544 51.6414 184.0752 0006161 308.3559 197.0748 15.49940858395047 NO-44 1 26931U 01043C 23124.58545919 .00000234 00000-0 12036-3 0 9991 2 26931 67.0507 309.4065 0007508 278.8926 81.1325 14.30900783127349 SO-50 1 27607U 02058C 23124.83929454 .00001217 00000-0 18421-3 0 9993 2 27607 64.5560 37.8129 0072732 233.3266 126.1138 14.77182097 96032 CO-55 1 27844U 03031E 23124.57768007 .00000438 00000-0 21493-3 0 9991 2 27844 98.6792 132.4723 0008611 249.4502 110.5752 14.22748744 29535 CO-57 1 27848U 03031J 23124.50347293 .00000363 00000-0 18296-3 0 9992 2 27848 98.6830 132.8313 0008445 266.8945 93.1267 14.22263142 29294 RS-22 1 27939U 03042A 23124.70681767 .00001332 00000-0 23958-3 0 9992 2 27939 98.2356 271.3597 0011274 273.4335 86.5584 14.68266592 48165 NOAA-18 1 28654U 05018A 23124.79906397 .00000258 00000-0 16240-3 0 9992 2 28654 98.9104 199.3977 0015137 140.1793 220.0492 14.12926869925446 CO-58 1 28895U 05043F 23124.85498544 .00002005 00000-0 37837-3 0 9991 2 28895 98.1466 257.2667 0015939 204.5403 155.5044 14.65504545934692 CO-65 1 32785U 08021C 23124.40706985 .00003367 00000-0 33761-3 0 9999 2 32785 97.7030 91.3194 0010433 245.8985 114.1143 14.91960621814290 AAUSAT2 1 32788U 08021F 23124.49091474 .00011000 00000-0 82037-3 0 9994 2 32788 97.5585 104.9160 0009280 135.2994 224.8980 15.03006197816541 DO-64 1 32789U 08021G 23124.79978461 .00051574 00000-0 16574-2 0 9990 2 32789 97.3069 146.7175 0003989 257.1184 102.9612 15.32090218820836 CO-66 1 32791U 08021J 23124.40838708 .00006322 00000-0 56501-3 0 9996 2 32791 97.6535 96.5893 0011561 187.7487 172.3558 14.96193793815114 RS-30 1 32953U 08025A 23124.50285466 .00000024 00000-0 10000-3 0 9995 2 32953 82.5059 344.2765 0018777 281.4284 78.4685 12.43122777678222 PRISM 1 33493U 09002B 23124.53659870 .00009806 00000-0 68329-3 0 9992 2 33493 98.2467 136.0248 0016493 185.9569 174.1462 15.05548981777170 NOAA-19 1 33591U 09005A 23124.55478836 .00000259 00000-0 16437-3 0 9993 2 33591 99.1038 169.7763 0013881 10.3921 349.7535 14.12745605733520 SRMSAT 1 37841U 11058D 23124.29349221 .00000497 00000-0 12798-3 0 9992 2 37841 19.9709 115.4019 0011642 269.3157 118.8219 14.10883499596601 HRBE 1 37855U 11061F 23124.38525637 .00018624 00000-0 61783-3 0 9997 2 37855 101.7050 61.6067 0124381 173.6292 186.6547 15.24174404629881 RS-40 1 38735U 12041C 23124.51416291 .00000054 00000-0 31675-3 0 9999 2 38735 82.4761 65.3196 0018303 34.2429 325.9830 12.42593576488391 ZACUBE-1 1 39417U 13066B 23124.42910481 .00004100 00000-0 47733-3 0 9993 2 39417 97.6821 87.6489 0057015 71.9776 288.7640 14.84629178510704 Delfi-N3xt 1 39428U 13066N 23124.75176543 .00006241 00000-0 90509-3 0 9991 2 39428 97.8335 51.1403 0110700 329.8358 29.6505 14.72242440505922 GOMX-1 1 39430U 13066Q 23124.65175478 .00002162 00000-0 38092-3 0 9996 2 39430 97.7849 18.3260 0147317 110.8532 250.8528 14.61610181503184 LO-74 1 39440U 13066AA 23124.40462005 .00002457 00000-0 32278-3 0 9992 2 39440 97.7698 74.6061 0075991 168.3570 191.9422 14.79126433507687 AO-73 1 39444U 13066AE 23124.84495652 .00006103 00000-0 68090-3 0 9991 2 39444 97.6685 90.5600 0055140 56.9145 303.7348 14.86255792509799 SPROUT 1 39770U 14029E 23124.90861914 .00021644 00000-0 17158-2 0 9993 2 39770 97.9717 250.9476 0007858 94.9838 265.2253 15.00539873485665 DTUSAT-2 1 40030U 14033W 23124.51421806 .00005442 00000-0 53249-3 0 9998 2 40030 97.9658 64.5132 0012786 78.0033 282.2618 14.92681905481488 EO-80 1 40032U 14033Y 23124.49008994 .00004604 00000-0 45148-3 0 9994 2 40032 97.9655 64.5065 0012504 78.5785 281.6838 14.92682766481459 HODOYOSHI-1 1 40299U 14070B 23124.46861008 .00011417 00000-0 36254-3 0 9998 2 40299 97.1975 188.2905 0012354 77.7854 47.4316 15.32736711472116 FIREBIRD FU3 1 40377U 15003B 23124.41499061 .00133718 00000-0 14560-2 0 9997 2 40377 99.0770 70.7296 0049388 7.8893 352.3125 15.61441909457785 FIREBIRD FU4 1 40378U 15003C 23124.41889177 .00134760 00000-0 14651-2 0 9998 2 40378 99.0788 71.0501 0049618 6.9161 353.2765 15.61463339457794 GRIFEX 1 40379U 15003D 23124.88249402 .00041638 00000-0 98421-3 0 9990 2 40379 99.0795 51.3195 0088585 61.2407 299.7696 15.37636789456729 XW-2C 1 40906U 15049H 23124.76129630 .00012306 00000-0 48902-3 0 9992 2 40906 97.4959 131.7840 0010382 323.4833 122.9285 15.25406954421779 XW-2D 1 40907U 15049J 23124.76682639 .00014734 00000-0 55539-3 0 9997 2 40907 97.4936 132.2118 0009151 317.3447 128.7586 15.27134245421854 LILACSAT-2 1 40908U 15049K 23124.51839552 .00006427 00000-0 30786-3 0 9996 2 40908 97.5266 127.7142 0013729 350.1855 129.0494 15.19208649421169 XW-2E 1 40909U 15049L 23124.53519471 .00027715 00000-0 79276-3 0 9994 2 40909 97.4563 137.8151 0006371 277.4193 234.5922 15.35915152422433 XW-2F 1 40910U 15049M 23124.51462101 .00027474 00000-0 80138-3 0 9992 2 40910 97.4659 137.0204 0007154 279.7461 231.4582 15.35298722422182 XW-2B 1 40911U 15049N 23124.50637862 .00014691 00000-0 55735-3 0 9992 2 40911 97.4918 132.4137 0009237 320.5349 190.5056 15.26920385421692 DCBB 1 40912U 15049P 23124.50550771 .00034561 00000-0 84553-3 0 9994 2 40912 97.4212 141.5230 0007570 224.1677 290.4374 15.40684839422877 IO-86 1 40931U 15052B 23124.54383960 .00001128 00000-0 66795-4 0 9999 2 40931 5.9932 38.0777 0013661 34.9188 325.2156 14.77186780410894 ATHENOXAT-1 1 41168U 15077C 23123.44528929 .00109403 00000-0 19405-2 0 9992 2 41168 14.9864 210.1252 0006382 117.9233 328.5336 15.48345269409350 ChubuSat-2 1 41338U 16012B 23124.40118125 .00003520 00000-0 24443-3 0 9993 2 41338 31.0015 137.6752 0012127 102.9137 257.2855 15.03668323395781 ChubuSat-3 1 41339U 16012C 23124.41853999 .00003366 00000-0 23421-3 0 9993 2 41339 31.0103 134.6093 0011775 111.6014 31.8866 15.03554877395780 Horyu-4 1 41340U 16012D 23124.29467106 .00006601 00000-0 42032-3 0 9996 2 41340 31.0030 105.5161 0011655 165.1849 194.9132 15.07294106396093 e-st@r-II 1 41459U 16025D 23124.49299596 .00024678 00000-0 76578-3 0 9995 2 41459 98.1899 321.4467 0111719 250.4028 108.5158 15.27399929386222 AAUSAT4 1 41460U 16025E 23124.57100880 .00083262 00000-0 14316-2 0 9998 2 41460 98.1682 332.6579 0071584 208.2945 211.1353 15.47937691387007 LO-87 1 41557U 16033B 23124.53479720 .00055004 00000-0 83583-3 0 9998 2 41557 97.3849 230.8673 0006393 282.7715 207.6079 15.54371726386836 NuSat2 1 41558U 16033C 23124.86764728 .00064115 00000-0 87391-3 0 9994 2 41558 97.4125 238.9281 0006829 270.7435 216.8115 15.57291918387212 Lapan A3 1 41603U 16040E 23124.75894398 .00002626 00000-0 11690-3 0 9996 2 41603 97.1703 152.3275 0014469 107.3327 342.0277 15.22213330380889 Pratham 1 41783U 16059A 23124.55175550 .00000786 00000-0 15806-3 0 9993 2 41783 97.8727 157.6011 0031877 237.1717 122.6416 14.63882382352591 TY-1 1 41844U 16066D 23124.48600789 .00048383 00000-0 88926-3 0 9996 2 41844 97.3722 142.7131 0008524 194.7159 306.1964 15.49040662360901 CAS-2T 1 41847U 16066G 23124.45287762 .00000924 00000-0 14766-3 0 9998 2 41847 98.5063 193.2072 0359504 328.8242 29.2053 14.39589882340517 EO-88 1 42017U 17008BX 23124.74976168 .00130325 00000-0 12793-2 0 9998 2 42017 97.2151 194.5903 0004922 182.5903 177.5333 15.65624749346648 CAS-4B 1 42759U 17034B 23124.55104834 .00009734 00000-0 49890-3 0 9990 2 42759 43.0192 358.1297 0010477 188.3412 247.6773 15.16664447325010 CAS-4A 1 42761U 17034D 23124.56845248 .00008424 00000-0 43275-3 0 9991 2 42761 43.0178 356.5709 0011030 189.7682 250.6804 15.16713938325027 NIUSat 1 42766U 17036B 23124.54687393 .00023179 00000-0 63769-3 0 9995 2 42766 97.1611 156.9004 0008612 251.7891 108.2417 15.37145678325906 Aalto 1 1 42775U 17036L 23124.58261092 .00017559 00000-0 53530-3 0 9993 2 42775 97.1564 155.9247 0008268 256.3917 103.6406 15.33979459325835 URSA MAIOR 1 42776U 17036M 23124.56590485 .00020792 00000-0 60137-3 0 9997 2 42776 97.1576 157.1253 0007979 250.9644 109.0736 15.35609561325893 Max Valier Sat 1 42778U 17036P 23124.70171424 .00022219 00000-0 61727-3 0 9995 2 42778 97.1604 160.6207 0006501 246.1775 113.8789 15.36866459326048 Pegasus 1 42784U 17036V 23124.64183225 .00037319 00000-0 82104-3 0 9996 2 42784 97.1520 162.6861 0005967 234.4406 125.6286 15.43868183326256 NUDATSat 1 42787U 17036Y 23124.89467661 .00330830 00000-0 17702-2 0 9990 2 42787 97.1434 172.3625 0007249 200.3380 159.7562 15.79415364326733 SUCHAI 1 1 42788U 17036Z 23124.32791509 .00060312 00000-0 10207-2 0 9998 2 42788 97.1502 165.5882 0005838 220.3542 139.7278 15.51352409326487 SKCUBE 1 42789U 17036AA 23124.52822206 .00049297 00000-0 95841-3 0 9997 2 42789 97.1511 164.4981 0005635 223.5311 136.5495 15.47439137326351 VZLUSAT 1 1 42790U 17036AB 23124.56941317 .00283669 00000-0 17559-2 0 9990 2 42790 97.1421 171.7322 0007005 203.2962 156.7988 15.76250204326813 VENTA 1 1 42791U 17036AC 23124.53738267 .00038291 00000-0 83655-3 0 9996 2 42791 97.1530 163.7455 0005468 228.6094 131.4685 15.44073156326291 Robusta 1B 1 42792U 17036AD 23124.57649365 .00057490 00000-0 10172-2 0 9996 2 42792 97.1483 165.6135 0005243 215.0705 145.0203 15.50109376326440 D-SAT 1 42794U 17036AF 23124.51207404 .00005760 00000-0 45873-3 0 9996 2 42794 97.4634 118.6194 0119224 88.7771 272.7106 14.95232810319405 TechnoSat 1 42829U 17042E 23124.50695920 .00003081 00000-0 29792-3 0 9991 2 42829 97.3923 324.5624 0013872 19.4628 340.7119 14.93404837315970 AO-91 1 43017U 17073E 23124.41107520 .00004574 00000-0 32630-3 0 9992 2 43017 97.6367 10.4876 0234354 213.4570 145.1655 14.85513218294688 PICSAT 1 43132U 18004X 23124.48487809 .00060119 00000-0 98615-3 0 9995 2 43132 97.3317 206.6289 0004597 258.7358 101.3378 15.52237520295754 AO-92 1 43137U 18004AC 23124.27524751 .00031861 00000-0 72058-3 0 9990 2 43137 97.3306 203.0854 0004388 291.1468 68.9311 15.43087774295532 TianYi 2 1 43155U 18008A 23124.50144588 .00018482 00000-0 76239-3 0 9995 2 43155 97.3032 178.1078 0015314 104.5471 8.9994 15.23995346291998 Zhou Enlai 1 43156U 18008B 23124.46196185 .00020367 00000-0 83040-3 0 9994 2 43156 97.3085 178.1258 0012828 103.8318 21.2998 15.24400200291911 TianYi 6 1 43158U 18008D 23124.42469338 .00015458 00000-0 68435-3 0 9991 2 43158 97.3084 175.2202 0012649 106.3877 264.9924 15.21666515291766 S-Net D 1 43186U 18014G 23124.69883357 .00003585 00000-0 29118-3 0 9992 2 43186 97.6446 29.2971 0011413 311.6871 48.3375 15.00200260287033 S-Net B 1 43187U 18014H 23124.69964507 .00003453 00000-0 28064-3 0 9993 2 43187 97.6438 29.2327 0011506 310.2180 49.8036 15.00191755287039 S-Net A 1 43188U 18014J 23124.29964625 .00003148 00000-0 25630-3 0 9998 2 43188 97.6444 28.9239 0011544 311.9641 48.0598 15.00190542286976 S-Net C 1 43189U 18014K 23124.50149330 .00003271 00000-0 26623-3 0 9991 2 43189 97.6429 29.0225 0011692 307.9527 52.0639 15.00177921285559 Shaonian Xing 1 43199U 18015H 23124.50852319 .00113331 00000-0 11538-2 0 9998 2 43199 97.5418 280.8058 0007265 297.0292 134.1904 15.64738819292966 CubeBel-1 1 43666U 18083E 23124.78789118 .00026954 00000-0 78302-3 0 9995 2 43666 97.3857 156.2140 0007538 270.4466 178.0732 15.35427012250530 Changshagaoxin 1 43669U 18083H 23124.85540837 .00023513 00000-0 75143-3 0 9997 2 43669 97.3843 151.1295 0005282 272.1043 140.5755 15.32439277250304 Ten-Koh 1 43677U 18084G 23124.38162406 .00002517 00000-0 24882-3 0 9992 2 43677 98.0060 263.4916 0013956 294.7026 65.2739 14.92790368245526 PO-101 1 43678U 18084H 23124.56886123 .00002290 00000-0 22437-3 0 9994 2 43678 98.0147 267.6796 0008374 311.3426 48.7065 14.93281988245750 QO-100 1 43700U 18090A 23124.56716053 .00000159 00000-0 00000-0 0 9992 2 43700 0.0128 271.7974 0001617 163.5431 16.8681 1.00275078 16245 Reaktor Hello World 1 43743U 18096AA 23124.19993606 .00050949 00000-0 80607-3 0 9991 2 43743 97.3184 210.1511 0008422 340.9897 19.1040 15.53257244247334 MinXSS-2 1 43758U 18099A 23124.13555508 .00006429 00000-0 50732-3 0 9999 2 43758 97.5926 189.1801 0015472 273.4442 86.5012 15.00969963241131 AO-95 1 43770U 18099N 23124.38735492 .00005427 00000-0 44761-3 0 9994 2 43770 97.5757 187.1053 0010189 275.1155 84.8906 14.99389325241042 RANGE-B 1 43772U 18099Q 23124.50719173 .00007029 00000-0 55511-3 0 9993 2 43772 97.5836 189.8481 0006942 246.7024 113.3470 15.00974628241118 RANGE-A 1 43773U 18099R 23124.12556797 .00003801 00000-0 32501-3 0 9991 2 43773 97.5686 185.0717 0010474 264.8195 95.1832 14.98169751240967 MOVE-II 1 43780U 18099Y 23124.44017630 .00008495 00000-0 63669-3 0 9995 2 43780 97.5758 189.4133 0006839 305.0682 54.9902 15.02907093241163 SNUSat 2 1 43782U 18099AA 23124.74988537 .00003847 00000-0 31921-3 0 9995 2 43782 97.5765 187.9832 0010674 263.7772 96.2236 14.99326121241121 SnugLite 1 43784U 18099AC 23124.11690758 .00005432 00000-0 44266-3 0 9991 2 43784 97.5711 186.9998 0010071 264.4352 95.5723 14.99853410241061 ITASat 1 1 43786U 18099AE 23124.44755233 .00004174 00000-0 34760-3 0 9999 2 43786 97.5774 188.2003 0012269 264.7179 95.2644 14.99120805241092 EAGLET 1 1 43790U 18099AJ 23124.21073025 .00002750 00000-0 23270-3 0 9993 2 43790 97.5803 188.4718 0010670 276.5807 83.4202 14.98799158240795 ESEO 1 43792U 18099AL 23124.72928121 .00002733 00000-0 23936-3 0 9997 2 43792 97.5733 187.5709 0010723 270.7448 89.2546 14.97459762240883 CSIM 1 43793U 18099AM 23124.14913016 .00008102 00000-0 59959-3 0 9991 2 43793 97.5777 190.3917 0014876 274.9409 85.0118 15.03334146240965 Astrocast 0.1 1 43798U 18099AS 23124.77904105 .00005639 00000-0 43523-3 0 9996 2 43798 97.5914 190.4024 0011885 242.2568 117.7452 15.01905113241257 JO-97 1 43803U 18099AX 23124.17173794 .00005162 00000-0 41576-3 0 9996 2 43803 97.5709 187.8882 0011655 251.3147 108.6812 15.00314082241096 Suomi 100 1 43804U 18099AY 23124.42544943 .00004353 00000-0 35369-3 0 9997 2 43804 97.5718 187.9702 0015139 263.3611 96.5890 15.00020298241138 Al Farabi 2 1 43805U 18099AZ 23124.74859848 .00006315 00000-0 49146-3 0 9994 2 43805 97.5684 189.2645 0009543 239.4966 120.5309 15.01557266241236 CHOMPTT 1 43855U 18104G 23124.22965877 .00021573 00000-0 56572-3 0 9993 2 43855 85.0344 196.0075 0015043 124.6747 235.5924 15.38416724243812 ISAT 1 43879U 18111D 23124.79680928 .00006894 00000-0 53162-3 0 9991 2 43879 97.6518 29.8676 0012271 311.7910 48.2265 15.01860467235805 UWE-4 1 43880U 18111E 23124.45316749 .00005926 00000-0 45928-3 0 9999 2 43880 97.6411 30.3313 0015128 329.0711 30.9621 15.01692876237802 Sparrow 1 43881U 18111F 23124.48142319 .00007527 00000-0 57501-3 0 9992 2 43881 97.6548 30.8457 0011210 358.3667 1.7520 15.02194009237823 Lume 1 1 43908U 18111AJ 23124.23732826 .00029827 00000-0 65900-3 0 9992 2 43908 97.1469 8.2134 0013183 11.3040 348.8502 15.43712366242607 FO-99 1 43937U 19003F 23124.54254259 .00051298 00000-0 96153-3 0 9999 2 43937 97.0910 152.4167 0015841 82.6013 277.7038 15.48362588239287 AstroCast 0.2 1 44083U 19018F 23124.72675511 .00055819 00000-0 11609-2 0 9991 2 44083 97.2705 184.2692 0005269 85.5883 274.5968 15.45443057227697 AISTechSat 3 1 44103U 19018AB 23123.67015920 .00025973 00000-0 67652-3 0 9997 2 44103 97.2589 182.5012 0010717 81.1814 75.3614 15.38795774227656 AISat 1 1 44104U 19018AC 23124.51323804 .00020966 00000-0 42878-3 0 9995 2 44104 97.3730 215.1193 0042813 58.9207 301.6233 15.45140643228974 Prox-1 1 44339U 19036A 23124.87536287 .00007498 00000-0 15225-2 0 9995 2 44339 24.0018 319.7883 0009642 146.7880 213.3218 14.58906237205354 Move-IIb 1 44398U 19038N 23124.45472939 .00042846 00000-0 11994-2 0 9994 2 44398 97.6592 105.3330 0018239 90.3023 270.0310 15.36348758211943 SONATE 1 44400U 19038Q 23124.47848435 .00011634 00000-0 53353-3 0 9995 2 44400 97.6815 101.2620 0023212 103.0378 257.3450 15.20365737211597 BeeSat 9 1 44412U 19038AC 23124.88657646 .00025010 00000-0 91451-3 0 9999 2 44412 97.6727 104.1752 0018957 97.5405 262.7988 15.27893858211546 JAISAT-1 1 44419U 19038F 23124.51819819 .00023963 00000-0 86817-3 0 9993 2 44419 97.6721 104.8578 0018207 95.8454 264.4861 15.28220126211860 Taurus 1 1 44530U 19059C 23124.87548612 .00004775 00000-0 12506-2 0 9992 2 44530 98.5503 232.0293 0012686 216.9531 143.0754 14.49710744192365 Duchifat 3 1 44854U 19089C 23124.00661542 .00008234 00000-0 56492-3 0 9994 2 44854 36.9641 355.1931 0010816 316.5914 178.2639 15.05554108186171 OPS-SAT 1 44878U 19092F 23124.47432115 .00022783 00000-0 73015-3 0 9992 2 44878 97.4764 312.7254 0008173 288.2894 71.7458 15.32338697187098 TO-108 1 44881U 19093C 23124.49219396 .00001160 00000-0 15105-3 0 9995 2 44881 97.8614 203.6871 0013854 216.3522 143.6749 14.82432901182325 FloripaSat 1 1 44885U 19093G 23124.70407333 .00004040 00000-0 47391-3 0 9995 2 44885 97.8680 206.3579 0013053 217.4476 142.5813 14.85460622182490 RS-44 1 44909U 19096E 23124.44035326 .00000023 00000-0 55137-4 0 9990 2 44909 82.5259 17.0160 0216398 289.4009 68.3818 12.79720299156560 BY70-2 1 45857U 20042B 23124.48259943 .00019184 00000-0 20479-2 0 9990 2 45857 97.9256 204.2853 0011071 147.2380 212.9492 14.88810627153034 UPMSat 2 1 46276U 20061E 23124.46317260 .00008196 00000-0 35434-3 0 9991 2 46276 97.3494 192.9727 0002933 113.8207 246.3338 15.22712049147632 AmicalSat 1 46287U 20061R 23124.15426094 .00011090 00000-0 53301-3 0 9995 2 46287 97.4032 191.5196 0001523 197.2870 162.8313 15.18986579147028 SALSAT 1 46495U 20068K 23124.51265271 .00004742 00000-0 31751-3 0 9992 2 46495 97.7679 72.0756 0013587 268.6147 91.3524 15.07338671142495 CAPE 3 1 47309U 21002A 23124.54226589 .00035171 00000-0 91572-3 0 9995 2 47309 60.6788 228.0398 0021078 158.2034 201.9962 15.38471132127568 AO-109 1 47311U 21002C 23124.55483169 .00028302 00000-0 77915-3 0 9991 2 47311 60.6818 226.0113 0020694 151.6983 208.5239 15.36853537127573 MiTEE 1 1 47314U 21002F 23124.51091024 .00249887 00000-0 18650-2 0 9998 2 47314 60.6671 197.5762 0004594 83.4141 276.7491 15.71632144128075 ExoCube 2 1 47319U 21002L 23124.59860478 .00026699 00000-0 75232-3 0 9992 2 47319 60.6801 227.8217 0021039 155.4417 204.7683 15.36149131127518 UVSQ-SAT 1 47438U 21006AB 23124.09801544 .00014218 00000-0 60531-3 0 9992 2 47438 97.3888 181.8725 0009225 228.3961 131.6486 15.23056206125931 YUSAT 1 1 47439U 21006AC 23124.71495667 .00019632 00000-0 78321-3 0 9998 2 47439 97.3889 183.0809 0008941 223.1187 136.9351 15.25179395126068 SOMP 2b 1 47445U 21006AJ 23124.72322435 .00014192 00000-0 61621-3 0 9999 2 47445 97.3850 181.8052 0008941 231.4303 128.6133 15.22388771126008 IDEASSat 1 47458U 21006AX 23124.42583644 .00012471 00000-0 55029-3 0 9994 2 47458 97.3948 182.2741 0008237 230.4398 129.6111 15.21875072125944 CubeSX-Sirius-HSE 1 47951U 21022V 23124.56838492 .00009389 00000-0 53870-3 0 9995 2 47951 97.5016 22.6514 0020821 122.2380 286.0996 15.12583285116432 CubeSX-HSE 1 47952U 21022W 23124.54999177 .00008837 00000-0 50643-3 0 9994 2 47952 97.5025 22.6768 0020677 121.7796 322.1040 15.12644761116437 KSU-Cubesat 1 47954U 21022Y 23124.67610568 .00010997 00000-0 61612-3 0 9992 2 47954 97.5023 23.1196 0020200 120.3955 239.9277 15.13403699116196 GRBAlpha 1 47959U 21022AD 23124.79555922 .00009163 00000-0 52388-3 0 9995 2 47959 97.5019 22.9933 0020491 121.0634 279.7471 15.12724434115296 Orbicraft-Zorkiy 1 47960U 21022AE 23124.77974660 .00010656 00000-0 59828-3 0 9994 2 47960 97.5047 23.3453 0020197 120.2986 325.0333 15.13338192115997 STECCO 1 47962U 21022AG 23124.80434191 .00017825 00000-0 86210-3 0 9990 2 47962 97.5015 25.3953 0015387 110.2142 290.4415 15.18556656115458 DO-111 1 47963U 21022AH 23124.46449863 .00140470 00000-0 27773-2 0 9996 2 47963 97.5022 31.0878 0014022 98.4688 261.8151 15.46493577115805 MO-110 1 47964U 21022AJ 23124.27592954 .00018455 00000-0 87356-3 0 9997 2 47964 97.5036 25.4094 0017613 108.0748 252.2407 15.19261980115407 FEES 1 48082U 21022AL 23124.26271511 .00030100 00000-0 12242-2 0 9993 2 48082 97.5033 26.2648 0014001 102.8965 257.3837 15.24390158115163 TUBIN 1 48900U 21059X 23124.83993865 .00009253 00000-0 44859-3 0 9993 2 48900 97.5919 258.2045 0010483 76.3904 75.8922 15.18696675102598 IT-SPINS 1 49017U 21013G 23124.51550197 .00033758 00000-0 84502-3 0 9991 2 49017 51.5925 292.4395 0007567 173.8094 186.2984 15.39746273102975 LEDSAT 1 49069U 21073D 23124.16293260 .00007467 00000-0 41943-3 0 9990 2 49069 97.4845 195.8030 0022919 271.7026 88.1580 15.13382017 94241 CUTE 1 49263U 21088D 23124.16919646 .00008453 00000-0 55357-3 0 9995 2 49263 97.5475 190.7482 0019399 58.4725 301.8394 15.07822485 87652 TeikyoSat 4 1 49396U 21102B 23124.56673370 .00002836 00000-0 22028-3 0 9992 2 49396 97.5151 177.8948 0014231 234.2624 125.7278 15.02040493 81222 Z-Sat 1 49399U 21102E 23124.52728813 .00002729 00000-0 19813-3 0 9993 2 49399 97.4883 178.9647 0021134 214.1796 145.8071 15.04531787 81329 KOSEN 1 1 49402U 21102H 23124.38525624 .00003844 00000-0 26540-3 0 9991 2 49402 97.4806 179.2646 0020627 203.8028 156.2247 15.06182780 81363 HO-113 1 50466U 21131B 23124.56947957 .00000688 00000-0 23813-3 0 9995 2 50466 98.5515 206.2516 0003036 266.7310 93.3530 14.38861066 71087 Tevel-3 1 50988U 22002E 23124.54404501 .00018956 00000-0 79655-3 0 9995 2 50988 97.4369 191.8536 0008189 39.5493 67.5486 15.23444326 72113 Tevel-8 1 50989U 22002F 23124.75996039 .00018818 00000-0 79205-3 0 9999 2 50989 97.4379 192.1217 0008301 37.6021 80.2454 15.23389080 72142 Tevel-5 1 50998U 22002Q 23124.57740699 .00019703 00000-0 80911-3 0 9998 2 50998 97.4359 192.2216 0009285 32.6758 76.9902 15.24205751 72147 Tevel-6 1 50999U 22002R 23124.57593278 .00019600 00000-0 80486-3 0 9991 2 50999 97.4359 192.2159 0009142 32.9564 76.7150 15.24207681 72141 Tevel-1 1 51013U 22002AF 23124.55262309 .00018970 00000-0 79815-3 0 9998 2 51013 97.4368 191.8113 0008017 40.3550 66.9756 15.23402819 72111 Grizu-263a 1 51025U 22002AT 23124.16063130 .00062368 00000-0 16131-2 0 9990 2 51025 97.4511 195.7810 0005661 28.7126 331.4430 15.38854602 72275 NO-116 1 51031U 22002AZ 23124.46065965 .00031534 00000-0 10946-2 0 9997 2 51031 97.4485 194.1924 0009038 31.6347 328.5434 15.29680820 72215 IRIS-A 1 51044U 22002BN 23123.93701640 .00009226 00000-0 44929-3 0 9991 2 51044 97.4377 190.0904 0008993 44.1492 316.0459 15.18549003 71944 Tevel-7 1 51062U 22002CG 23124.49997711 .00019051 00000-0 80171-3 0 9995 2 51062 97.4377 191.8388 0008355 37.8566 87.1659 15.23393837 72107 Tevel-4 1 51063U 22002CH 23124.50458668 .00018952 00000-0 79864-3 0 9997 2 51063 97.4381 191.8313 0008190 38.4471 86.0966 15.23349336 72104 Tevel-2 1 51069U 22002CP 23124.48343096 .00019042 00000-0 80020-3 0 9995 2 51069 97.4366 191.7674 0008146 38.6709 86.0668 15.23442555 72105 DELFI-PQ 1 51074U 22002CU 23124.76166079 .00038076 00000-0 12049-2 0 9999 2 51074 97.4619 196.5865 0009817 58.9109 301.3095 15.32620629 72345 SO-115 1 51080U 22002DA 23123.64960121 .00019462 00000-0 73975-3 0 9996 2 51080 97.4640 194.3332 0011507 65.1299 295.1135 15.26772911 72092 SO-114 1 51081U 22002DB 23124.16622244 .00021176 00000-0 80050-3 0 9993 2 51081 97.4628 194.8172 0011631 62.4324 297.8095 15.26934684 72173 OreSat0 1 52017U 22026K 23124.58075409 .00015854 00000-0 66413-3 0 9993 2 52017 97.5096 126.8894 0021140 232.5673 127.3640 15.23416131 62904 Planetum 1 1 52738U 22057G 23124.82442858 .00014418 00000-0 68874-3 0 9998 2 52738 97.5329 240.8528 0008310 136.7485 223.4403 15.19108628 52070 Foresail-1 1 52766U 22057AL 23124.87041237 .00010305 00000-0 49989-3 0 9997 2 52766 97.5438 241.7708 0013726 120.1003 357.2854 15.18607563 52103 SNUGLITE 2 1 52899U 22065F 23124.40351946 .00001274 00000-0 27972-3 0 9996 2 52899 98.0627 270.4812 0007814 3.3305 356.7945 14.59190147 44474 CTIM 1 52950U 22074G 23124.57371915 .00042485 00000-0 10584-2 0 9999 2 52950 44.9999 242.3983 0013893 315.6119 44.3644 15.39518543 46872 IO-117 1 53106U 22080B 23121.98189554 -.00000003 00000-0 00000-0 0 9999 2 53106 70.1683 335.7822 0008237 195.3909 164.6501 6.42557335 18785 AstroBioCubeSat 1 53107U 22080C 22364.14200119 -.00000003 00000-0 00000-0 0 9997 2 53107 70.1674 18.5562 0013489 216.1674 143.8074 6.42110599 10793 SelfieSat 1 53951U 22057BC 23124.30761925 .00017020 00000-0 78131-3 0 9997 2 53951 97.5377 240.8449 0010363 133.7079 226.5016 15.20431614 52014 FO-118 1 54684U 22167C 23124.59919556 .00012942 00000-0 73366-3 0 9992 2 54684 97.5551 262.5246 0015022 124.6625 7.9221 15.13022699 22085 KILICSAT 1 56181U 23054D 23124.66225317 .00012473 00000-0 55462-3 0 9991 2 56181 97.4100 20.2038 0009832 176.2360 183.8951 15.21601208 3550 SSS-2B 1 56184U 23054G 23124.52943378 .00012998 00000-0 57565-3 0 9991 2 56184 97.4162 20.0921 0011140 178.3444 181.7831 15.21714420 3534 CIRBE 1 56188U 23054L 23124.52622123 .00015277 00000-0 67002-3 0 9997 2 56188 97.4114 20.0847 0010325 170.2808 189.8630 15.22019031 3534 INSPIRE-Sat 7 1 56211U 23054AK 23124.57424342 .00016259 00000-0 68203-3 0 9997 2 56211 97.4142 20.1804 0015839 158.1020 202.0898 15.23451510 3540 RoseyCubesat 1 1 56212U 23054AL 23124.50696585 .00017193 00000-0 71773-3 0 9995 2 56212 97.4148 20.1193 0016292 157.9029 202.2914 15.23595034 3538 ARKSAT 1 1 56311U 98067VC 23124.85444628 .00048426 00000-0 78817-3 0 9997 2 56311 51.6385 183.1817 0007937 309.2048 50.8237 15.52137299 1625 AuroraSat 1 56312U 98067VD 23124.85452122 .00049650 00000-0 80779-3 0 9996 2 56312 51.6383 183.1825 0007853 308.9007 51.1282 15.52137801 1657 Ex-Alta 2 1 56313U 98067VE 23124.85467173 .00048497 00000-0 79013-3 0 9996 2 56313 51.6384 183.1833 0007809 308.4670 51.5619 15.52109275 1641 LightCube 1 56314U 98067VF 23124.53373653 .00055028 00000-0 89882-3 0 9994 2 56314 51.6381 184.7898 0007663 291.4803 68.5369 15.51984903 1620 NEUDOSE 1 56315U 98067VG 23124.53469152 .00039204 00000-0 65114-3 0 9995 2 56315 51.6385 184.7959 0007850 289.6974 70.3169 15.51666827 1574 YukonSat 1 56316U 98067VH 23124.53449649 .00045180 00000-0 74619-3 0 9995 2 56316 51.6385 184.7945 0007714 290.2501 69.7659 15.51760719 1596 /EX